Погода Петропавловск-Камч.

Хотите узнать прогноз погоды Петропавловск-Камч.? Тогда Вам сюда: Погода Петропавловск-Камч.

Поиск расширенной информации на нашем сайте:

Полезная информация:

Новости сайта



02.01.2020
Опубликован Долгосрочный прогноз погоды по городам России и ближнего зарубежья на январь 2020 года.
Карты: Прогноз на январь и февраль 2020 года, Сравнение прогнозируемой аномалии приземной температуры воздуха на январь 2020 года по разным моделям.




Погода Петропавловск-Камч. - сегодня

Время (UTC), дата Ветер
(°,м/с) 
Видим.   Явления Облачность Т
(°С)
Тd
(°С)
f(%) Тe
(°С)
Pmin
(гПа)
dP
(гПа)
Po
(мм)
O2
(г/м3)
Тmin Tmax R s Состояние
почвы
15 27.03.20 360 (С) 20000 м    10/10 600 м 
[Sc]
+1.8 -1.6 78 +3  1012.3  757  303           
18 27.03.20 140 (ЮВ) 20000 м    10/8 200 м средняя 
[Sc|Ac und]
+1.9 -1.7 77 +1  1012.7  0.4  757  303           
21 27.03.20 150 (ЮВ) 20000 м    10/10 300 м 
[Sc]
+1.6 -1.4 80 1014.4  1.6  758  304  +1.2      85  неравномерный
мокрый или
старый снег
100% 
00 28.03.20 120 (ЮВ) 10 км  слаб. ливневой дождь  10/10 200 м кучево-дожд. 
[Cb cap]
+1.5 -0.7 85 1015.1  0.7  759  304           
03 28.03.20 120 (ЮВ) 5-11{11}  10 км  в посл. час ливневой дождь  10/10 300 м кучево-дожд. 
[Cb cap]
+2 -1 80 -1  1014  -1  758  303           
06 28.03.20 130 (ЮВ) 3{13}  2000 м  слаб. ливневой дождь  10/10 200 м кучево-дожд. 
[Cb cap]
+1 -0.8 88 -1  1013.7  -0.4  758  304           
09 28.03.20 140 (ЮВ) 6-12{12}  10 км  слаб. ливневой дождь со снегом  10/10 300 м кучево-дожд. 
[Cb cap]
+0.5 -1.8 85 -3  1011.6  -2  756  304    +2.1     
12 28.03.20 140 (ЮВ) 5-12{12}  4000 м  слаб. ливневой снег  10/10 300 м кучево-дожд. 
[Cb cap]
-0 -1.6 89 -3  1008.3  -3.3  754  304           
15 28.03.20 140 (ЮВ) 6-10{13}  2000 м  слаб. ливневой снег  10/10 300 м кучево-дожд. 
[Cb cap]
-0.1 -1.2 92 -4  1006  -2.4  752  303           
18 28.03.20 130 (ЮВ) 5{13}  0500 м  ливневой снег  10/10 200 м кучево-дожд. 
[Cb cap]
-0.1 -0.9 94 -3  1002.2  -3.7  749  302           
21 28.03.20 320 (СЗ) 10 км  в посл. час ливневой снег  10/10 600 м кучево-дожд. 
[Cb cap]
-0.1 -0.9 94 -3  1001.7  -0.5  749  302  -0.3    90  неравномерный
сухой снег
100% 
00 29.03.20 320 (СЗ) 8-10{15}  20000 м  {ливн. осадки}  6/4 600 м верхняя 
[Sc|Ci fib]
+0.2 -5.8 64 -4  1001.5  0.1  749  302  -0.7         
03 29.03.20 270 (З) 5-10{13}  20000 м    3/3 600 м 
[Sc]
+1.6 -7.6 50 -1  1000.8  -0.7  748  301           
06 29.03.20 290 (З) 10-13{14}  20000 м  позёмок  4/3 600 м верхняя 
[Sc|Ci fib]
+0.4 -7.2 57 -4  1001.7  0.9  749  302           
09 29.03.20 290 (З) 12-15{16}  20000 м    3/3 600 м верхняя 
[Sc|Ci fib]
-1.3 -9.2 55 -7  1004.5  2.8  751  305    +2  0.0     
12 29.03.20 280 (З) 8-11{15}  20000 м    3/3 600 м 
[Sc]
-1.7 -9.3 56 -6  1007.3  2.7  753  306           
15 29.03.20 290 (З) 9-12{12}  20000 м    3/0 верхняя 
[Ci fib]
-2 -10 54 -7  1009.2  1.8  755  307           
18 29.03.20 300 (СЗ) 9-11{12}  20000 м    5/3 600 м верхняя 
[Sc|Ci fib]
-2.1 -8.2 63 -7  1010.8  1.6  756  308           
21 29.03.20 280 (З) 8-12{15}  20000 м    1/1 600 м 
[Sc]
-1.8 -10.1 53 -6  1012.4  1.6  757  308  -2.8      85  неравномерный
мокрый или
старый снег
100% 
00 30.03.20 290 (З) 6{12}  20000 м    3/3 600 м 
[Sc]
-0.1 -9.8 48 -4  1014  1.7  758  307           
03 30.03.20 260 (З) 20000 м    3/3 600 м 
[Sc]
+3 -8.4 43 +1  1013  -0.9  758  303           
06 30.03.20 260 (З) 3{11}  20000 м    3/3 600 м 
[Sc]
+3.3 -7.6 45 +2  1014.2  1.2  758  303           
09 30.03.20 260 (З) 2{10}  20000 м    3/1 600 м верхняя 
[Sc|Ci fib]
+0.6 -7.8 53 1015  0.7  759  306    +3.4       
12 30.03.20 020 (С) 20000 м    ясно 
+0.2 -8.5 52 +1  1014  -1  758  306           
15 30.03.20 140 (ЮВ) 20000 м    ясно 
-1.3 -9.2 55 -1  1012.7  -1.3  757  308           
Время (UTC), дата Ветер
(°,м/с) 
Видим.   Явления Облачность Т
(°С)
Тd
(°С)
f(%) Тe
(°С)
Pmin
(гПа)
dP
(гПа)
Po
(мм)
O2
(г/м3)
Тmin Tmax R s Состояние
почвы

Для получения пояснительной информации подведите курсор к названию столбца.

ПОГОДА Петропавловск-Камч. - архив

Всё, что Вы хотите узнать о погоде Петропавловск-Камч. - удобно и подробно!

Выберите нужную дату (начиная с 1 января 2019* года) и нажмите кнопку "Найти".
Будут отображены архивные сводки погоды по пункту Петропавловск-Камч., начиная с указанной даты.


Отображать данные в формате CSV (для использования в таблицах Excel)


Внимание! Наш архив погоды предназначен исключительно для личного некоммерческого использования в познавательных целях. Если Вам необходимы официальные справки о состоянии погоды (для производственных, юридических, коммерческих и т.п. целей), обращайтесь в органы Росгидромета.

*Примечание: данная дата относится к архиву по метеостанциям СССР (Россия, СНГ, Балтия).
Архив по метеостанциям Зарубежной Европы и Азии (кроме Китая) хранится 10 дней, по другим регионам земного шара (Китай, Африка, Америка, Австралия, Океания) - 1 день.

Петропавловск-Камч. - район местоположения метеостанции


Название, широта, долгота, высота метеостанции:
Петропавловск-Камч. (обсерватория) 53°ш. 158.6°д. 24 м над ур. моря [Российская Федерация]

Дополнительная информация

В oтличие oт бoльшинства пoгoдных сайтoв мы публикуем пoдрoбную метеoинфoрмацию в детальнoм прoфессиoнальнoм фoрмате.

Характеристики температуры и влажнoсти вoздуха измеряются на высoте 2 м в тени вдали oт зданий и деревьев.
Скoрoсть ветра измеряется на высoте 10 м (на урoвне рoста челoвека скoрoсть ветра ниже в 1.5-2 раза). Если метеoстанция нахoдится в гoрoде или в лесу, тo скoрoсть ветра занижена на 2-4 м/с пo сравнению с oткрытым местoм. Скoрoсть ветра над акватoриями крупных рек и oзёр, а также на вершинах хoлмoв на 2-5 м/с выше, чем в oбычных услoвиях.
Атмoсфернoе давление в разных тoчках местнoсти мoжет значительнo oтличаться oт давления на метеoстанции, в зависимoсти oт услoвий рельефа (при пoдъёме на 10 м давление пoнижается примернo на 1 мм рт.ст.).